Simultaneous Nadir Overpasses (SNOs) Predictions

Prediction of SNOs between METOP-A and TERRA Satellite Orbit:

Table of predicted SNOs for the next 14.0 days since TLE Epoch: 9/19/2020
Index Date (METOP-A) Time (METOP-A) Lat,Lon (METOP-A) SZA (METOP-A ) Date (TERRA) Time (TERRA) Lat,Lon (TERRA) SZA (TERRA ) Distance(km) Time Diff (sec)
1 09/19/2020 03:04:54 81.39,-177.53 83.16 09/19/2020 03:04:19 81.38,-177.34 83.16 3.23 35
2 09/21/2020 21:48:37 -81.39, 81.43 95.76 09/21/2020 21:49:08 -81.39, 81.60 95.73 2.80 31
3 09/21/2020 22:39:17 81.38,-110.97 84.29 09/21/2020 22:38:35 81.38,-111.01 84.26 1.02 42
4 09/24/2020 17:23:00 -81.38, 148.00 94.63 09/24/2020 17:23:25 -81.38, 147.80 94.64 3.38 25
5 09/24/2020 18:13:40 81.38, -44.43 85.42 09/24/2020 18:12:51 81.38, -44.46 85.39 0.78 49
6 09/27/2020 12:57:23 -81.39,-145.84 93.54 09/27/2020 12:57:41 -81.38,-145.77 93.53 1.72 18
7 09/27/2020 13:48:02 81.37, 22.10 86.54 09/27/2020 13:47:07 81.38, 21.94 86.50 2.89 55
8 09/30/2020 08:31:46 -81.38, -79.30 92.41 09/30/2020 08:31:58 -81.39, -79.12 92.38 3.16 12
